Location: Saratoga Springs
(43.0831°N, 73.7850°W)
Time: 08:04:54
(UTC-04:00)

Vanguard 2 Rocket - Pass Details

Date: 24 April 2024
Orbit: 556 x 3304 km, 32.9° (Epoch: 22 May)

Event Time Altitude Azimuth Distance (km) Brightness Sun altitude
Rises 22:05:25 0° 246° (WSW) 5,741 11.3 -21.8°
Reaches altitude 10° 22:08:45 10° 243° (WSW) 5,040 10.9 -22.2°
Maximum altitude 22:24:20 59° 169° (S) 3,464 9.4 -24.1°
Drops below altitude 10° 22:43:53 10° 97° (E) 6,159 10.7 -26.3°
Sets 22:48:28 0° 94° (E) 7,031 11.1 -26.8°
